Retour au catalogue

STARLINK-3562

ActifCommunicationsVLEO
NORAD 51861·PAYLOAD·🇺🇸 United States

Lancé Mar 3, 2022 depuis Cape Canaveral Space Force Station

Loading…

Prochains Passages (prochaines 24 heures)

TLE

FraisSource: CelesTrak SupGP

Époque: Sep 15, 2026, 02:08 UTC

1 51861C 22022K   26258.08937500 -.00044658  00000+0 -13195-2 0  2581
2 51861  53.1587 228.6664 0001326  92.3238 120.5330 15.34410776    18

Suivez STARLINK-3562 en temps réel avec AllMySat

Download on the App Store